Weather History for Cambridge, MN

Change the Weather History Date:

Sunday, August 4, 2013

  Actual Average Record
Temperature  
Mean Temperature 60 °F -  
Max Temperature 73 °F 79 °F 96 °F (1989)
Min Temperature 46 °F 57 °F 45 °F (1971)
Degree Days  
Heating Degree Days 6    
Growing Degree Days 10 (Base 50)    
Moisture  
Dew Point 55 °F    
Average Humidity 78    
Maximum Humidity 94    
Minimum Humidity 64    
Precipitation  
Precipitation 0.00 in - - ()
Sea Level Pressure  
Sea Level Pressure 30.15 in    
Wind  
Wind Speed 1 mph (South)    
Max Wind Speed 8 mph    
Max Gust Speed -    
Visibility 10 miles    
Events      
Averages and records for this station are not official NWS values.
T = Trace of Precipitation, MM = Missing Value Source: NWS Daily Summary

Daily Weather History Graph

Daily Weather History Graph

Search for Another Location

Airport:

Trip Planner

Search our weather history database for the weather conditions in past years. The results will help you decide how hot, cold, wet, or windy it might be!

Date:

Astronomy

Aug. 04, 2013 Rise Set
Actual Time 6:00 AM CDT 8:36 PM CDT
Civil Twilight 5:26 AM CDT 9:10 PM CDT
Nautical Twilight 4:44 AM CDT 9:52 PM CDT
Astronomical Twilight 3:55 AM CDT 10:41 PM CDT
Moon 4:01 AM CDT (8/4) 7:00 PM CDT (8/4)
Length of Visible Light 15h 43m
Length of Day
14h 36m
Waning Crescent, 4% of the Moon is Illuminated
Aug 4
Waning Crescent
Aug 6
New
Aug 14
First Quarter
Aug 20
Full
Aug 28
Last Quarter

Hourly Weather History & Observations

Time (CDT) Temp. Dew Point Humidity Pressure Visibility Wind Dir Wind Speed Gust Speed Precip Events Conditions
12:15 AM 53.6 °F 50.0 °F 88% 30.21 in 10.0 mi Calm Calm - N/A   Clear
12:34 AM 51.8 °F 48.2 °F 88% 30.21 in 10.0 mi Calm Calm - N/A   Clear
12:55 AM 51.8 °F 46.4 °F 82% 30.22 in 10.0 mi Calm Calm - N/A   Clear
1:15 AM 50.0 °F 46.4 °F 87% 30.22 in 10.0 mi Calm Calm - N/A   Clear
1:34 AM 50.0 °F 46.4 °F 87% 30.22 in 10.0 mi Calm Calm - N/A   Clear
1:55 AM 50.0 °F 46.4 °F 87% 30.22 in 10.0 mi Calm Calm - N/A   Clear
2:15 AM 50.0 °F 46.4 °F 87% 30.23 in 10.0 mi Calm Calm - N/A   Clear
2:34 AM 53.6 °F 48.2 °F 82% 30.21 in 10.0 mi Calm Calm - N/A   Clear
2:55 AM 50.0 °F 46.4 °F 87% 30.21 in 10.0 mi Calm Calm - N/A   Clear
3:15 AM 48.2 °F 46.4 °F 93% 30.21 in 10.0 mi Calm Calm - N/A   Clear
3:35 AM 48.2 °F 46.4 °F 93% 30.21 in 10.0 mi Calm Calm - N/A   Clear
3:55 AM 48.2 °F 46.4 °F 93% 30.20 in 10.0 mi Calm Calm - N/A   Clear
4:15 AM 50.0 °F 46.4 °F 87% 30.20 in 10.0 mi Calm Calm - N/A   Clear
4:34 AM 51.8 °F 48.2 °F 88% 30.20 in 10.0 mi Calm Calm - N/A   Clear
4:55 AM 48.2 °F 46.4 °F 93% 30.19 in 10.0 mi Calm Calm - N/A   Clear
5:14 AM 48.2 °F 46.4 °F 93% 30.19 in 10.0 mi Calm Calm - N/A   Clear
5:35 AM 51.8 °F 48.2 °F 88% 30.19 in 10.0 mi Calm Calm - N/A   Clear
5:55 AM 46.4 °F 44.6 °F 93% 30.21 in 10.0 mi Calm Calm - N/A   Clear
6:14 AM 48.2 °F 46.4 °F 93% 30.21 in 10.0 mi Calm Calm - N/A   Clear
6:35 AM 48.2 °F 46.4 °F 93% 30.20 in 10.0 mi Calm Calm - N/A   Clear
6:55 AM 50.0 °F 48.2 °F 94% 30.20 in 10.0 mi Calm Calm - N/A   Clear
7:14 AM 53.6 °F 50.0 °F 88% 30.20 in 10.0 mi Calm Calm - N/A   Clear
7:35 AM 55.4 °F 51.8 °F 88% 30.21 in 10.0 mi Calm Calm - N/A   Clear
7:55 AM 57.2 °F 51.8 °F 82% 30.21 in 10.0 mi Calm Calm - N/A   Clear
8:15 AM 57.2 °F 53.6 °F 88% 30.22 in 10.0 mi Calm Calm - N/A   Clear
8:35 AM 59.0 °F 53.6 °F 82% 30.23 in 10.0 mi Calm Calm - N/A   Clear
8:54 AM 60.8 °F 55.4 °F 82% 30.23 in 10.0 mi Calm Calm - N/A   Clear
9:15 AM 60.8 °F 55.4 °F 82% 30.23 in 10.0 mi SSE 3.5 mph - N/A   Scattered Clouds
9:35 AM 62.6 °F 55.4 °F 77% 30.22 in 10.0 mi ESE 3.5 mph - N/A   Scattered Clouds
9:55 AM 64.4 °F 57.2 °F 77% 30.21 in 10.0 mi ESE 3.5 mph - N/A   Clear
10:14 AM 64.4 °F 57.2 °F 77% 30.21 in 10.0 mi SSE 3.5 mph - N/A   Clear
10:35 AM 66.2 °F 57.2 °F 73% 30.20 in 10.0 mi ESE 4.6 mph - N/A   Clear
10:55 AM 66.2 °F 59.0 °F 78% 30.20 in 10.0 mi SE 5.8 mph - N/A   Clear
11:14 AM 68.0 °F 60.8 °F 78% 30.20 in 10.0 mi SE 6.9 mph - N/A   Clear
11:35 AM 69.8 °F 60.8 °F 73% 30.19 in 10.0 mi SE 5.8 mph - N/A   Clear
11:55 AM 69.8 °F 60.8 °F 73% 30.18 in 10.0 mi SSW 4.6 mph - N/A   Clear
12:14 PM 71.6 °F 60.8 °F 69% 30.17 in 10.0 mi SSE 3.5 mph - N/A   Clear
12:35 PM 69.8 °F 60.8 °F 73% 30.17 in 10.0 mi Calm Calm - N/A   Scattered Clouds
12:54 PM 69.8 °F 60.8 °F 73% 30.17 in 10.0 mi Calm Calm - N/A   Clear
1:15 PM 71.6 °F 60.8 °F 69% 30.16 in 10.0 mi SE 3.5 mph - N/A   Scattered Clouds
1:35 PM 71.6 °F 60.8 °F 69% 30.16 in 10.0 mi Calm Calm - N/A   Clear
1:54 PM 71.6 °F 59.0 °F 64% 30.15 in 10.0 mi South 4.6 mph - N/A   Clear
2:15 PM 71.6 °F 60.8 °F 69% 30.15 in 10.0 mi Calm Calm - N/A   Scattered Clouds
2:35 PM 73.4 °F 60.8 °F 65% 30.14 in 10.0 mi Calm Calm - N/A   Clear
2:54 PM 73.4 °F 60.8 °F 65% 30.14 in 10.0 mi SSE 4.6 mph - N/A   Clear
3:15 PM 73.4 °F 60.8 °F 65% 30.13 in 10.0 mi Calm Calm - N/A   Clear
3:34 PM 73.4 °F 60.8 °F 65% 30.13 in 10.0 mi WSW 3.5 mph - N/A   Mostly Cloudy
3:55 PM 73.4 °F 60.8 °F 65% 30.12 in 10.0 mi Calm Calm - N/A   Mostly Cloudy
4:15 PM 73.4 °F 60.8 °F 65% 30.12 in 10.0 mi SSW 8.1 mph - N/A   Scattered Clouds
4:34 PM 73.4 °F 60.8 °F 65% 30.11 in 10.0 mi South 4.6 mph - N/A   Clear
4:55 PM 71.6 °F 60.8 °F 69% 30.11 in 10.0 mi South 4.6 mph - N/A   Scattered Clouds
5:15 PM 73.4 °F 60.8 °F 65% 30.10 in 10.0 mi South 5.8 mph - N/A   Scattered Clouds
5:34 PM 71.6 °F 60.8 °F 69% 30.10 in 10.0 mi South 3.5 mph - N/A   Clear
5:55 PM 73.4 °F 60.8 °F 65% 30.09 in 10.0 mi SSW 5.8 mph - N/A   Clear
6:15 PM 73.4 °F 60.8 °F 65% 30.08 in 10.0 mi SSW 5.8 mph - N/A   Clear
6:34 PM 73.4 °F 60.8 °F 65% 30.08 in 10.0 mi SSW 5.8 mph - N/A   Clear
6:55 PM 71.6 °F 60.8 °F 69% 30.07 in 10.0 mi SSW 5.8 mph - N/A   Clear
7:14 PM 71.6 °F 60.8 °F 69% 30.06 in 10.0 mi South 5.8 mph - N/A   Clear
7:35 PM 71.6 °F 60.8 °F 69% 30.06 in 10.0 mi South 5.8 mph - N/A   Clear
7:55 PM 69.8 °F 59.0 °F 68% 30.05 in 10.0 mi South 3.5 mph - N/A   Clear
8:14 PM 68.0 °F 59.0 °F 73% 30.05 in 10.0 mi Calm Calm - N/A   Clear
8:35 PM 66.2 °F 57.2 °F 73% 30.04 in 10.0 mi South 3.5 mph - N/A   Clear
8:55 PM 64.4 °F 57.2 °F 77% 30.04 in 10.0 mi Calm Calm - N/A   Clear
9:14 PM 62.6 °F 55.4 °F 77% 30.04 in 10.0 mi Calm Calm - N/A   Clear
9:35 PM 59.0 °F 55.4 °F 88% 30.04 in 10.0 mi Calm Calm - N/A   Clear
9:54 PM 62.6 °F 55.4 °F 77% 30.04 in 10.0 mi Calm Calm - N/A   Clear
10:15 PM 60.8 °F 55.4 °F 82% 30.04 in 10.0 mi Calm Calm - N/A   Clear
10:35 PM 60.8 °F 55.4 °F 82% 30.04 in 10.0 mi Calm Calm - N/A   Clear
10:55 PM 59.0 °F 55.4 °F 88% 30.03 in 10.0 mi Calm Calm - N/A   Clear
11:15 PM 60.8 °F 55.4 °F 82% 30.02 in 10.0 mi Calm Calm - N/A   Clear
11:34 PM 59.0 °F 53.6 °F 82% 30.01 in 10.0 mi Calm Calm - N/A   Clear
11:55 PM 60.8 °F 55.4 °F 82% 30.00 in 10.0 mi SE 4.6 mph - N/A   Clear